Terminal Aerodrome Forecast
Issued by NWS Miami, FL

Home | Current Version | Previous Version | Text Only | Print | Product List | Glossary On
Versions: 1 2 3 4 5 6 7 8 9 10 11 12 13 14 15 16 17 18 19 20 21 22 23 24 25 26 27 28 29 30 31 32 33 34 35 36 37 38 39 40 41 42 43 44 45 46
000
FTUS42 KMFL 161503 AAA
TAFAPF
TAF AMD
KAPF 161503Z 1615/1712 26006KT P6SM SCT030
     FM162000 30008KT P6SM VCTS SCT030CB
     FM170100 VRB03KT P6SM SCT250
     FM170600 00000KT P6SM BKN250=

USA.gov is the U.S. government's official web portal to all federal, state and local government web resources and services.